Location: Unspecified
(17.6474°N, 0.0000°E)
Time: 05:22:26
(UTC+00:00)

Vanguard 2 - All Passes

Search period start: 04 April 2026 00:00
Search period end: 14 April 2026 00:00
Orbit: 554 x 2896 km, 32.9° (Epoch: 29 March)

Date Brightness Start Highest point End Pass type
(mag) Time Alt. Az. Time Alt. Az. Time Alt. Az.
4 Apr - 00:13:40 10° W 00:27:48 32° SW 00:41:39 10° SSE visible
4 Apr - 11:32:55 10° S 11:35:01 14° SE 11:37:17 10° ESE daylight
4 Apr - 13:37:53 10° WSW 13:42:18 69° NNW 13:48:53 10° ENE daylight
4 Apr - 15:46:26 10° WNW 15:51:56 30° N 16:00:15 10° NE daylight
4 Apr - 17:55:08 10° NW 18:03:20 36° NNE 18:15:52 10° ENE daylight
4 Apr - 20:03:24 10° NW 20:15:18 66° NNE 20:32:28 10° ESE visible
4 Apr - 22:12:54 10° WNW 22:27:33 64° SW 22:44:57 10° SE visible
5 Apr - 00:27:05 10° W 00:39:44 25° SW 00:52:08 10° S visible
5 Apr - 11:43:28 10° SSW 11:46:42 24° SE 11:50:23 10° E daylight
5 Apr - 13:49:58 10° W 13:54:20 47° NNW 14:00:44 10° NE daylight
5 Apr - 15:58:49 10° WNW 16:04:19 28° N 16:12:29 10° NE daylight
5 Apr - 18:07:10 10° NW 18:15:38 40° NNE 18:28:44 10° E daylight
5 Apr - 20:15:16 10° WNW 20:27:19 77° NNE 20:44:45 10° ESE visible
5 Apr - 22:25:08 10° WNW 22:39:28 53° SW 22:56:18 10° SE visible
6 Apr - 00:41:18 10° WSW 00:51:47 19° SW 01:02:06 10° S night (unlit)
6 Apr - 11:54:41 10° SW 11:58:25 40° SE 12:02:48 10° ENE daylight
6 Apr - 14:02:14 10° W 14:06:28 35° NNW 14:12:32 10° NE daylight
6 Apr - 16:11:07 10° NW 16:16:42 27° N 16:24:55 10° ENE daylight
6 Apr - 18:19:05 10° NW 18:27:50 45° NNE 18:41:34 10° E visible
6 Apr - 20:27:08 10° WNW 20:39:18 89° NNE 20:56:50 10° ESE visible
6 Apr - 22:37:35 10° W 22:51:24 43° SW 23:07:27 10° SSE visible
7 Apr - 00:56:59 10° WSW 01:04:00 13° SW 01:10:56 10° SSW night (unlit)
7 Apr - 12:06:17 10° SW 12:10:12 71° SSE 12:14:55 10° ENE daylight
7 Apr - 14:14:37 10° WNW 14:18:42 27° N 14:24:21 10° NE daylight
7 Apr - 16:23:20 10° NW 16:29:03 27° N 16:37:31 10° ENE daylight
7 Apr - 18:30:56 10° NW 18:39:57 51° NNE 18:54:17 10° E visible
7 Apr - 20:39:05 10° WNW 20:51:14 78° SSW 21:08:41 10° SE visible
7 Apr - 22:50:20 10° W 23:03:23 34° SW 23:18:19 10° SSE visible
8 Apr - 10:12:58 10° S 10:14:34 12° SSE 10:16:07 10° ESE daylight
8 Apr - 12:18:08 10° WSW 12:22:03 69° NNW 12:26:49 10° NE daylight
8 Apr - 14:27:04 10° WNW 14:30:58 23° N 14:36:14 10° NE daylight
8 Apr - 16:35:24 10° NW 16:41:21 28° NNE 16:50:17 10° ENE daylight
8 Apr - 18:42:45 10° NW 18:51:58 60° NNE 19:06:51 10° ESE visible
8 Apr - 20:51:06 10° WNW 21:03:11 65° SSW 21:20:19 10° SE visible
8 Apr - 23:03:30 10° W 23:15:27 27° SW 23:28:52 10° SSE visible
9 Apr - 10:23:11 10° SSW 10:26:26 21° SSE 10:29:28 10° E daylight
9 Apr - 12:30:14 10° W 12:34:00 43° NNW 12:38:35 10° NE daylight
9 Apr - 14:39:31 10° NW 14:43:16 20° N 14:48:15 10° NE daylight
9 Apr - 16:47:21 10° NW 16:53:35 31° NNE 17:03:06 10° ENE daylight
9 Apr - 18:54:32 10° NW 19:03:55 71° NNE 19:19:12 10° ESE visible
9 Apr - 21:03:15 10° WNW 21:15:09 54° SSW 21:31:43 10° SE visible
9 Apr - 23:17:20 10° WSW 23:27:39 20° SW 23:38:57 10° S visible
10 Apr - 10:34:18 10° SW 10:38:16 36° SSE 10:41:56 10° E daylight
10 Apr - 12:42:31 10° W 12:46:03 29° NNW 12:50:15 10° NE daylight
10 Apr - 14:51:52 10° NW 14:55:35 19° N 15:00:28 10° NE daylight
10 Apr - 16:59:11 10° NW 17:05:42 36° NNE 17:15:55 10° E daylight
10 Apr - 19:06:21 10° WNW 19:15:50 85° NNE 19:31:21 10° ESE visible
10 Apr - 21:15:36 10° W 21:27:11 43° SSW 21:42:52 10° SSE visible
10 Apr - 23:32:18 10° WSW 23:40:00 15° SSW 23:48:12 10° S visible
11 Apr - 10:45:50 10° SW 10:50:06 64° SSE 10:54:02 10° ENE daylight
11 Apr - 12:54:58 10° WNW 12:58:10 21° NNW 13:01:53 10° NE daylight
11 Apr - 15:04:04 10° NW 15:07:53 19° N 15:12:53 10° NE daylight
11 Apr - 17:10:58 10° NW 17:17:44 42° NNE 17:28:39 10° E daylight
11 Apr - 19:18:14 10° WNW 19:27:45 80° SSW 19:43:16 10° SE visible
11 Apr - 21:28:15 10° W 21:39:16 34° SSW 21:53:45 10° SSE visible
12 Apr - 08:51:06 10° S 08:54:00 14° SSE 08:56:29 10° ESE daylight
12 Apr - 10:57:39 10° WSW 11:01:57 74° NNW 11:05:55 10° ENE daylight
12 Apr - 13:07:34 10° NW 13:10:20 17° N 13:13:30 10° NNE daylight
12 Apr - 15:16:06 10° NNW 15:20:07 20° NNE 15:25:31 10° ENE daylight
12 Apr - 17:22:42 10° NW 17:29:40 51° NNE 17:41:15 10° E daylight
12 Apr - 19:30:12 10° WNW 19:39:41 66° SSW 19:54:56 10° SE visible
12 Apr - 21:41:15 10° W 21:51:27 26° SSW 22:04:18 10° SSE visible
13 Apr - 09:01:35 10° SSW 09:06:01 24° SSE 09:09:30 10° E daylight
13 Apr - 11:09:44 10° W 11:13:49 44° NNW 11:17:39 10° NE daylight
13 Apr - 13:20:13 10° NW 13:22:33 14° N 13:25:12 10° NNE daylight
13 Apr - 15:27:57 10° NNW 15:32:17 23° NNE 15:38:17 10° ENE daylight
13 Apr - 17:34:26 10° NW 17:41:34 64° NNE 17:53:39 10° ESE daylight
13 Apr - 19:42:18 10° WNW 19:51:41 52° SSW 20:06:22 10° SE visible
13 Apr - 21:54:53 10° WSW 22:03:45 20° SSW 22:14:23 10° S visible
